www.pogodaiklimat.ru

Погода и климат >> Архив погоды >> Сейшелы >> Seychelles


АРХИВ ПОГОДЫ в Seychelles

Время (UTC), дата Ветер
(напр.,м/с)
 
Видим.   Явления Облачность Т
(С)
Тd
(С)
f
(%)
Тe
(С)
Тes
(С)
Комфортность P
(гПа)
Po
(гПа)
Тmin
(С)
Tmax
(С)
R
(мм)
R24
(мм)
S
(см)
09 14.10 ЮВ 3 45 км 5 баллов +29.6 +21.4 61 +37 +47 очень
душно
1010.2 1010.0
12 14.10 ЮВ 3 45 км 8 баллов +29.9 +20.9 59 +37 +39 очень
душно
1008.5 1009.0
15 14.10 ЮВ 1 45 км 9 баллов +27.7 +21.3 68 +35 +35 очень
душно
1010.6 1011.0
18 14.10 Ю 1 45 км 9/0
[]
+27.3 +21.8 72 +35 +35 очень
душно
1012.0 1012.0
21 14.10 Ю 1 45 км 8 баллов +26.9 +22.0 75 +35 +35 очень
душно
1010.4 1010.0
00 15.10 штиль 0 40 км 5 баллов +25.4 +22.2 82 +33 +33 очень
душно
1009.7 1010.0
03 15.10 СЗ 1 45 км 4 балла +26.6 +23.2 82 +36 +36 очень
душно
1011.5 1012.0
06 15.10 ЮВ 2 45 км 4/0
[]
+31.0 +24.0 66 +43 +54 опасность
перегрева
1012.8 1013.0
09 15.10 ЮВ 3 45 км 3 балла +31.3 +24.2 66 +43 +57 опасность
перегрева
1010.4 1010.0
12 15.10 ЮВ 2 45 км 4 балла +30.9 +24.8 70 +44 +48 опасность
перегрева
1009.6 1010.0
15 15.10 ЮВ 1 40 км 8 баллов +28.7 +24.9 80 +41 +41 опасность
перегрева
1011.6 1012.0
18 15.10 ЮВ 2 40 км 3/0
[]
+28.6 +24.8 80 +41 +41 опасность
перегрева
1012.6 1013.0
21 15.10 ЮВ 3 40 км 3 балла +28.3 +24.9 82 +41 +41 опасность
перегрева
1011.3 1011.0
00 16.10 ЮВ 3 40 км 6 баллов +28.1 +25.1 84 +41 +41 опасность
перегрева
1010.6 1011.0
03 16.10 ЮВ 3 35 км 5 баллов +28.6 +24.9 80 +41 +41 опасность
перегрева
1012.1 1012.0
06 16.10 В 2 35 км 6/0
[]
+31.4 +24.9 68 +45 +55 опасность
перегрева
1013.3 1013.0
09 16.10 В 2 35 км 6 баллов +30.3 +24.8 72 +43 +52 опасность
перегрева
1011.1 1011.0
12 16.10 ЮВ 2 40 км 8/0
[]
+29.7 +25.0 76 +43 +47 опасность
перегрева
1009.9 1010.0
15 16.10 Ю 2 40 км 8 баллов +28.7 +24.1 76 +40 +40 очень
душно
1011.0 1011.0
18 16.10 ЮВ 4 40 км 8/0
[]
+28.3 +25.0 82 +41 +41 опасность
перегрева
1012.7 1013.0
21 16.10 ЮВ 3 40 км 6 баллов +28.1 +24.2 79 +39 +39 очень
душно
1011.8 1012.0
00 17.10 ЮВ 3 40 км 5 баллов +28.1 +23.8 78 +39 +39 очень
душно
1010.6 1011.0
03 17.10 ЮВ 3 40 км 8 баллов +28.0 +23.8 78 +39 +39 очень
душно
1012.1 1012.0
06 17.10 ЮВ 4 40 км 6/0
[]
+30.7 +24.4 69 +43 +51 опасность
перегрева
1012.9 1013.0
09 17.10 ЮВ 3 35 км 8 баллов +31.1 +24.1 66 +43 +46 опасность
перегрева
1010.9 1011.0
12 17.10 ЮВ 3 35 км 9 баллов +29.7 +24.3 73 +42 +42 опасность
перегрева
1009.4 1009.0
15 17.10 ЮВ 3 35 км 9 баллов +28.3 +23.7 76 +39 +39 очень
душно
1010.7 1011.0
18 17.10 ЮВ 3 35 км 9/0
[]
+27.9 +23.4 77 +38 +38 очень
душно
1012.0 1012.0
21 17.10 ЮВ 3 35 км 8 баллов +27.7 +23.2 77 +37 +37 очень
душно
1010.8 1011.0
00 18.10 ЮВ 3 35 км 8 баллов +27.8 +22.7 74 +37 +37 очень
душно
1009.9 1010.0
03 18.10 ЮВ 3 30 км 4 балла +28.2 +23.3 75 +38 +39 очень
душно
1011.5 1012.0
06 18.10 В 3 30 км 6/0
[]
+31.5 +23.3 62 +42 +51 опасность
перегрева
1012.7 1013.0
09 18.10 В 4 30 км 8 баллов +32.1 +23.2 59 +42 +46 опасность
перегрева
1010.4 1010.0
12 18.10 ЮВ 4 30 км 9 баллов +30.0 +23.5 68 +41 +41 опасность
перегрева
1009.1 1009.0
15 18.10 ЮВ 3 30 км 6 баллов +28.1 +22.8 73 +37 +37 очень
душно
1010.3 1010.0
18 18.10 ЮВ 3 30 км 6/0
[]
+28.0 +22.9 74 +37 +37 очень
душно
1011.8 1012.0
21 18.10 ЮВ 3 30 км 9 баллов +27.5 +23.4 78 +37 +37 очень
душно
1010.3 1010.0
00 19.10 ЮВ 3 30 км 6 баллов +27.7 +23.0 76 +37 +37 очень
душно
1009.8 1010.0
03 19.10 ЮВ 3 30 км 8 баллов +28.2 +22.8 73 +38 +38 очень
душно
1011.7 1012.0
06 19.10 В 3 40 км 6/0
[]
+30.8 +22.8 62 +40 +49 очень
душно
1012.9 1013.0
09 19.10 ЮВ 3 40 км 5 баллов +29.9 +22.9 66 +40 +48 очень
душно
1011.2 1011.0
15 19.10 ЮВ 3 40 км 3 балла +28.1 +22.2 70 +37 +37 очень
душно
1011.8 1012.0
18 19.10 ЮВ 3 40 км 4/0
[]
+27.8 +23.0 75 +37 +37 очень
душно
1013.3 1013.0
21 19.10 ЮВ 2 40 км 4 балла +27.5 +22.2 73 +36 +36 очень
душно
1011.9 1012.0
00 20.10 ЮВ 3 40 км 4 балла +27.2 +22.3 75 +36 +36 очень
душно
1011.2 1011.0
03 20.10 ЮВ 4 40 км 5 баллов +28.9 +22.3 68 +38 +38 очень
душно
1013.0 1013.0
06 20.10 ЮВ 2 40 км 3/0
[]
+30.8 +22.1 60 +40 +52 опасность
солнечного
удара
1014.1 1014.0
09 20.10 В 3 40 км 1 балл +31.4 +21.5 56 +40 +57 опасность
солнечного
удара
1012.6 1013.0
12 20.10 ЮВ 2 40 км 3 балла +29.2 +21.8 64 +37 +42 очень
душно
1011.1 1011.0
15 20.10 Ю 1 40 км 9 баллов +27.9 +22.1 71 +36 +36 очень
душно
1012.5 1013.0
18 20.10 В 1 40 км 3/0
[]
+27.1 +22.2 75 +35 +35 очень
душно
1013.7 1014.0
21 20.10 ЮВ 1 40 км 3 балла +25.9 +22.5 82 +34 +34 очень
душно
1012.3 1012.0
00 21.10 ЮВ 1 40 км 1 балл +25.4 +22.1 82 +33 +33 очень
душно
1011.1 1011.0
03 21.10 СЗ 1 40 км 4 балла +25.4 +22.4 83 +33 +34 очень
душно
1012.3 1012.0
06 21.10 СВ 2 40 км 4/0
[]
+29.7 +22.4 65 +39 +52 опасность
солнечного
удара
1012.8 1013.0

 

Местоположение метеостанции Seychelles (Сейшелы): широта -4.67 долгота 55.52 высота над уровнем моря 3 м.

В архиве по умолчанию представлена погода в Seychelles за последнюю неделю. Архивные данные за месяц целиком и за предыдущие месяцы, начиная с января 2011 года, Вы можете получить, выбрав интересующий диапазон дат из раскрывающегося списка и нажав кнопку "Ввод!".

Внимание! Время в таблицах - всемирное. Для получения местного времени необходимо прибавить поправку, которая в Seychelles равна 4 ч.

Смотрите также архив погоды в соседних городах и на ближайших метеорологических станциях:

Погода в Agalega (Маврикий) (655 км)
Погода в Antsiranana (Мадагаскар) (1094 км)
Погода в Iles Glorieuses (Реюньон) (1190 км)
Погода в Sambava (Мадагаскар) (1219 км)
Погода в Serge-Frolow (Реюньон) (1243 км)
Погода в Fascene (Мадагаскар) (1244 км)
Погода в Antalaha (Мадагаскар) (1274 км)
Погода в Mogadiscio (Сомали) (1354 км)
Погода в Saint Brandon Saint Raphael (Маврикий) (1385 км)
Погода в Antsohihy (Мадагаскар) (1404 км)

Пояснения к столбцам:

Ветер - указаны скорость ветра в м/с - средняя за 10 мин, порывы в срок и между сроками (в фигурных скобках) и направление, откуда дует ветер: С - северный, СВ - северо-восточный, В - восточный, ЮВ - юго-восточный, Ю - южный, ЮЗ - юго-западный, З - западный, СЗ - северо-западный.
Видимость - горизонтальная дальность видимости в метрах или километрах. При видимости от 1 до 10 км при отсутствии осадков обычно наблюдается дымка, при ухудшении видимости до 1 км и менее - туман. В сухую погоду видимость может ухудшаться дымом, пылью или мглою.
Явления - указаны атмосферные явления, наблюдавшиеся в срок или в последний час перед сроком; фигурными скобками обозначены явления, наблюдавшиеся между сроками (за 1-3 часа до срока); квадратными скобками обозначены град или гололедные отложения с указанием их диаметра в мм.
Облачность - указаны через наклонную черту общая и нижняя облачность в баллах и высота нижней границы облаков в метрах; квадратными скобками обозначены формы облаков: Ci - перистые, Cs - перисто-слоистые, Cc - перисто-кучевые, Ac - высококучевые, As - высокослоистые, Sc - слоисто-кучевые, Ns - слоисто-дождевые, Cu - кучевые, Cb - кучево-дождевые. Подробнее классификацию облаков см. в Атласе облаков (PDF).
T - Температура воздуха - температура, измеренная на высоте 2 м над землей.
Td - Температура точки росы - температура, при понижении до которой содержащийся в воздухе водяной пар достигнет насыщения.
f - Относительная влажность воздуха - влажноcть воздуха, измеренная на высоте 2 м над землей.
Te - Эффективная температура - температура, которую ощущает одетый по сезону человек в тени. Характеристика душности погоды. При расчете учитывается влияние влажности воздуха и скорости ветра на теплоощущения человека.
Tes - Эффективная температура на солнце - температура, которую ощущает человек, с поправкой на солнечный нагрев. Характеристика знойности погоды. Зависит от высоты солнца над горизонтом, облачности и скорости ветра. Ночью, в пасмурную погоду, а также при ветре 12 м/с и более поправка равна нулю.
P - Атмосферное давление - приведенное к уровню моря атмосферное давление.
Po - Атмосферное давление - измеренное на уровне метеостанции атмосферное давление.
Tmin - Минимальная температура - минимум температуры воздуха на высоте 2 м над землей.
Tmax - Максимальная температура - максимум температуры воздуха на высоте 2 м над землей.
R - Количество осадков - Количество выпавших осадков за период времени, мм. При наведении курсора мыши на число - период времени, за который выпало указанное количество осадков.
R24 - Количество осадков - Количество выпавших осадков за 24 часа, мм.
S - Снежный покров - Высота снежного покрова, см. При наведении курсора мыши на число - состояние снежного покрова и степень покрытия местности в баллах.